DW6358 Weather Reports


Display with metric or nautical units.
time (UTC)temp
F
wind
direction
speed
MPH
gust
MPH
rain 1hr
in
rain 24hr
in
rain mn
in
humidity
%
barometer
mb
20190217184358 46 335 3.0 15.0 0.00 0.17 0.14 97 1016.4
20190217183839 46 256 5.0 11.0 0.00 0.17 0.14 97 1016.4
20190217183400 46 315 5.0 11.0 0.00 0.17 0.14 97 1016.5
20190217182900 45 257 3.0 11.0 0.00 0.17 0.14 97 1016.5
20190217182358 45 318 4.0 10.0 0.00 0.17 0.14 97 1016.6
20190217181900 45 303 3.0 9.0 0.00 0.17 0.14 98 1016.6
20190217181402 45 228 3.0 8.0 0.00 0.17 0.14 98 1016.5
20190217180843 45 207 4.0 10.0 0.00 0.17 0.14 98 1016.6
20190217180345 45 270 3.0 7.0 0.00 0.17 0.14 98 1016.6
20190217175858 45 247 2.0 5.0 0.00 0.17 0.14 98 1016.6
20190217175358 45 221 3.0 4.0 0.00 0.17 0.14 98 1016.5
20190217174858 45 202 3.0 4.0 0.00 0.17 0.14 98 1016.6
20190217174343 44 214 2.0 5.0 0.00 0.17 0.14 98 1016.5
20190217173843 44 249 4.0 5.0 0.00 0.17 0.14 98 1016.6
20190217173345 45 203 2.0 4.0 0.00 0.17 0.14 98 1016.6
20190217172848 44 198 0.0 2.0 0.00 0.17 0.14 98 1016.7
20190217172347 44 234 1.0 3.0 0.00 0.17 0.14 98 1016.7
20190217171849 44 207 2.0 3.0 0.00 0.17 0.14 98 1016.7
20190217171352 45 188 0.0 1.0 0.00 0.17 0.14 98 1016.7
20190217170853 44 157 0.0 1.0 0.00 0.17 0.14 98 1016.7
20190217170354 45 157 0.0 1.0 0.00 0.17 0.14 99 1016.6
20190217165847 44 157 0.0 1.0 0.00 0.17 0.14 99 1016.7
20190217165350 44 158 0.0 0.0 0.00 0.17 0.14 99 1016.6
20190217164852 43 157 0.0 1.0 0.00 0.17 0.14 99 1016.6
20190217164353 42 68 0.0 2.0 0.00 0.17 0.14 98 1016.7
20190217163859 42 68 1.0 3.0 0.00 0.17 0.14 98 1016.7
20190217163358 42 63 1.0 4.0 0.00 0.17 0.14 98 1016.6
20190217162900 42 73 2.0 4.0 0.00 0.17 0.14 98 1016.6
20190217162401 41 111 1.0 3.0 0.00 0.17 0.14 98 1016.6
20190217161903 41 220 2.0 2.0 0.00 0.17 0.14 98 1016.5
20190217161344 41 219 1.0 1.0 0.00 0.17 0.14 98 1016.5
20190217160843 40 220 0.0 1.0 0.00 0.17 0.14 98 1016.5
20190217160346 40 220 0.0 1.0 0.01 0.17 0.14 98 1016.4
20190217155858 40 220 0.0 1.0 0.01 0.18 0.14 98 1016.3
20190217155358 40 219 0.0 1.0 0.01 0.18 0.14 98 1016.2
20190217154859 40 219 1.0 2.0 0.01 0.18 0.14 98 1016.2
20190217154402 40 219 1.0 1.0 0.01 0.18 0.14 98 1016.1
20190217153847 40 220 0.0 1.0 0.01 0.18 0.14 98 1016.0
20190217153350 40 220 0.0 1.0 0.01 0.18 0.14 98 1016.0
20190217152850 40 220 0.0 1.0 0.01 0.18 0.14 98 1016.2
20190217152350 40 219 0.0 2.0 0.01 0.18 0.14 98 1016.2
20190217151851 40 220 1.0 3.0 0.01 0.18 0.14 98 1016.4
20190217151353 40 200 1.0 3.0 0.01 0.18 0.14 98 1016.4
20190217150856 40 200 2.0 2.0 0.01 0.18 0.14 98 1016.3
20190217150355 40 189 2.0 2.0 0.00 0.17 0.13 98 1016.1
20190217145847 40 190 1.0 2.0 0.00 0.17 0.13 98 1016.0
20190217145347 40 189 1.0 2.0 0.00 0.17 0.13 98 1015.9
20190217144850 40 190 1.0 2.0 0.00 0.17 0.13 98 1015.9
20190217144351 40 189 0.0 2.0 0.00 0.17 0.13 98 1015.9
20190217143853 40 125 0.0 3.0 0.00 0.17 0.13 98 1015.8
20190217143358 40 124 1.0 3.0 0.00 0.17 0.13 98 1015.9
20190217142859 41 129 0.0 2.0 0.00 0.17 0.13 98 1016.0
20190217142401 41 128 1.0 2.0 0.00 0.17 0.13 98 1016.1
20190217141901 41 128 1.0 3.0 0.00 0.17 0.13 98 1016.2
20190217141401 41 335 2.0 3.0 0.00 0.17 0.13 98 1016.3
20190217140901 40 44 1.0 2.0 0.00 0.17 0.13 98 1016.2
20190217140402 40 42 1.0 2.0 0.00 0.17 0.13 98 1016.1
20190217135856 40 44 2.0 3.0 0.02 0.18 0.13 98 1016.2
20190217135356 40 70 2.0 2.0 0.04 0.18 0.13 98 1016.1
20190217134856 40 70 0.0 2.0 0.05 0.18 0.13 98 1016.1
20190217134356 40 56 1.0 3.0 0.06 0.18 0.13 98 1016.2
20190217133856 40 17 1.0 2.0 0.06 0.18 0.13 98 1016.2
20190217133356 40 18 0.0 1.0 0.06 0.18 0.13 98 1016.2
20190217132859 40 17 0.0 1.0 0.06 0.18 0.13 98 1016.2
20190217132401 40 17 1.0 1.0 0.06 0.18 0.13 98 1016.3
20190217131844 40 17 0.0 1.0 0.06 0.18 0.13 98 1016.3
20190217131344 40 17 0.0 1.0 0.06 0.18 0.13 98 1016.4
20190217130845 40 17 0.0 3.0 0.06 0.18 0.13 98 1016.5
20190217130347 40 18 1.0 3.0 0.05 0.17 0.12 98 1016.6
20190217125900 40 350 2.0 4.0 0.04 0.17 0.11 98 1016.7
20190217125359 40 323 2.0 4.0 0.02 0.15 0.09 98 1016.5
20190217124859 40 325 2.0 2.0 0.01 0.14 0.08 98 1016.4
20190217124358 40 4 0.0 2.0 0.01 0.13 0.07 98 1016.4
20190217123858 40 4 1.0 2.0 0.02 0.13 0.07 98 1016.4
20190217123358 40 2 1.0 3.0 0.03 0.13 0.07 98 1016.4
20190217122859 40 330 2.0 3.0 0.03 0.13 0.07 98 1016.5
20190217122343 40 53 0.0 3.0 0.04 0.13 0.07 98 1016.7
20190217121846 40 41 1.0 3.0 0.05 0.13 0.07 98 1016.8
20190217121345 40 214 1.0 2.0 0.06 0.13 0.07 98 1017.0
20190217120845 39 216 1.0 1.0 0.06 0.13 0.07 98 1017.0
20190217120347 39 215 0.0 1.0 0.06 0.13 0.07 98 1017.0
20190217115858 39 216 0.0 1.0 0.06 0.15 0.07 98 1017.2
20190217115359 39 217 0.0 1.0 0.07 0.15 0.07 98 1017.4
20190217114900 39 217 0.0 3.0 0.07 0.15 0.07 98 1017.6
20190217114359 39 217 0.0 3.0 0.06 0.14 0.06 98 1017.9
20190217113858 39 312 1.0 2.0 0.05 0.13 0.05 98 1017.9
20190217113359 39 360 0.0 4.0 0.04 0.12 0.04 98 1017.9
20190217112902 39 339 2.0 3.0 0.04 0.12 0.04 98 1017.9
20190217112345 39 76 0.0 1.0 0.03 0.11 0.03 98 1017.9
20190217111847 39 68 1.0 3.0 0.02 0.10 0.02 98 1017.9
20190217111349 39 68 2.0 5.0 0.01 0.09 0.01 98 1017.9
20190217110849 39 41 3.0 5.0 0.01 0.09 0.01 98 1018.0
20190217110350 39 25 2.0 5.0 0.01 0.09 0.01 98 1018.0
20190217105901 39 96 2.0 8.0 0.01 0.11 0.01 98 1018.1
20190217105401 39 42 5.0 8.0 0.00 0.10 0.00 98 1018.2
20190217104859 38 347 1.0 4.0 0.00 0.10 0.00 98 1018.3
20190217104358 38 29 3.0 4.0 0.00 0.10 0.00 98 1018.4
20190217103859 38 60 2.0 3.0 0.00 0.10 0.00 98 1018.4
20190217103359 38 66 2.0 3.0 0.00 0.10 0.00 98 1018.5
20190217102859 38 23 2.0 3.0 0.00 0.10 0.00 98 1018.6
20190217102359 38 333 2.0 3.0 0.00 0.10 0.00 98 1018.7
20190217101858 37 309 2.0 2.0 0.00 0.10 0.00 98 1018.8
20190217101343 37 309 2.0 2.0 0.00 0.10 0.00 98 1018.9
20190217100845 37 308 2.0 4.0 0.00 0.10 0.00 98 1018.9
20190217100345 37 22 2.0 4.0 0.00 0.10 0.00 98 1018.9
20190217095857 37 27 3.0 4.0 0.00 0.12 0.00 98 1019.0
20190217095358 37 27 3.0 4.0 0.00 0.12 0.00 98 1019.1
20190217094858 37 30 2.0 3.0 0.00 0.12 0.00 98 1019.2
20190217094358 37 55 2.0 3.0 0.00 0.12 0.00 98 1019.3
20190217093858 37 54 2.0 3.0 0.00 0.12 0.00 98 1019.4
20190217093359 37 27 2.0 3.0 0.00 0.12 0.00 98 1019.5
20190217092859 37 15 1.0 3.0 0.00 0.12 0.00 98 1019.4
20190217092359 37 15 2.0 3.0 0.00 0.12 0.00 98 1019.6
20190217091858 37 353 2.0 3.0 0.00 0.12 0.00 98 1019.6
20190217091343 37 335 2.0 4.0 0.00 0.12 0.00 98 1019.7
20190217090845 37 5 3.0 4.0 0.00 0.12 0.00 98 1019.6
20190217090346 37 42 2.0 3.0 0.00 0.12 0.00 98 1019.6
20190217085858 37 42 2.0 3.0 0.00 0.16 0.00 98 1019.7
20190217085358 37 53 1.0 1.0 0.00 0.16 0.00 98 1019.8
20190217084859 37 53 1.0 2.0 0.00 0.16 0.00 98 1019.8
20190217084359 37 53 1.0 2.0 0.00 0.16 0.00 98 1019.8
20190217083859 38 55 2.0 2.0 0.00 0.16 0.00 98 1019.8
20190217083359 38 56 1.0 2.0 0.00 0.16 0.00 98 1019.8
20190217082859 38 56 2.0 2.0 0.01 0.16 0.00 98 1019.8
20190217082359 38 56 0.0 2.0 0.01 0.16 0.00 97 1019.9
20190217081858 38 56 2.0 4.0 0.01 0.16 0.00 97 1019.9
20190217081356 38 56 3.0 4.0 0.01 0.16 0.00 98 1019.8
20190217080856 38 48 2.0 3.0 0.01 0.16 0.00 97 1019.8
20190217080359 38 150 1.0 3.0 0.01 0.16 0.00 97 1019.9
20190217075849 38 167 1.0 3.0 0.01 0.17 0.16 97 1019.9
20190217075349 38 200 1.0 3.0 0.01 0.17 0.16 97 1019.9
20190217074849 38 200 1.0 1.0 0.01 0.17 0.16 97 1020.0
20190217074350 38 200 1.0 2.0 0.01 0.17 0.16 97 1020.1
20190217073849 39 200 1.0 2.0 0.01 0.17 0.16 97 1020.1
20190217073349 39 200 1.0 2.0 0.01 0.17 0.16 97 1019.9
20190217072849 39 200 1.0 1.0 0.00 0.16 0.15 97 1020.0
20190217072349 39 200 1.0 1.0 0.00 0.16 0.15 97 1019.8
20190217071849 39 200 1.0 2.0 0.00 0.16 0.15 97 1019.9
20190217071349 40 200 1.0 2.0 0.00 0.16 0.15 97 1019.9
20190217070849 40 155 0.0 2.0 0.00 0.16 0.15 97 1019.9
20190217070349 40 155 1.0 2.0 0.00 0.16 0.15 97 1020.0
20190217065846 40 155 1.0 2.0 0.00 0.17 0.15 97 1020.0
20190217065345 40 155 1.0 1.0 0.00 0.17 0.15 97 1019.9
20190217064848 40 155 0.0 1.0 0.00 0.17 0.15 97 1020.0
20190217064349 40 155 1.0 1.0 0.00 0.17 0.15 97 1020.0
20190217063849 40 155 0.0 3.0 0.00 0.17 0.15 97 1020.2
20190217063349 40 155 2.0 3.0 0.00 0.17 0.15 97 1020.3
20190217062851 40 193 2.0 2.0 0.00 0.17 0.15 97 1020.3
20190217062351 40 195 1.0 2.0 0.00 0.17 0.15 97 1020.3
20190217061851 40 195 0.0 2.0 0.00 0.17 0.15 97 1020.3
20190217061349 40 195 2.0 3.0 0.00 0.17 0.15 97 1020.3
20190217060850 41 162 1.0 3.0 0.00 0.17 0.15 96 1020.2
20190217060351 41 180 2.0 3.0 0.00 0.17 0.15 96 1020.2
20190217055845 41 179 1.0 2.0 0.00 0.18 0.15 96 1020.0
20190217055349 41 179 1.0 2.0 0.00 0.18 0.15 96 1020.1
20190217054849 41 180 0.0 2.0 0.00 0.18 0.15 96 1020.1
20190217054351 41 179 1.0 2.0 0.00 0.18 0.15 96 1020.1
20190217053852 40 216 0.0 3.0 0.00 0.18 0.15 95 1020.0
20190217053353 41 216 2.0 3.0 0.00 0.18 0.15 95 1020.2
20190217052853 41 202 0.0 2.0 0.00 0.18 0.15 95 1020.2
20190217052355 41 202 1.0 2.0 0.00 0.18 0.15 95 1020.1
20190217051858 41 202 1.0 1.0 0.00 0.18 0.15 95 1019.9
20190217051357 41 202 0.0 0.0 0.00 0.18 0.15 95 1019.8
20190217050857 41 201 0.0 0.0 0.00 0.18 0.15 95 1019.9
20190217050357 41 201 0.0 0.0 0.00 0.18 0.15 94 1019.9
20190217045849 41 202 0.0 2.0 0.00 0.18 0.15 94 1019.8
20190217045351 41 201 0.0 2.0 0.00 0.18 0.15 94 1019.7
20190217044855 41 201 2.0 2.0 0.00 0.18 0.15 94 1019.5
20190217044357 41 219 1.0 2.0 0.00 0.18 0.15 94 1019.8
20190217043857 42 218 1.0 1.0 0.00 0.18 0.15 93 1020.0
20190217043358 42 218 0.0 2.0 0.00 0.18 0.15 93 1019.8
20190217042900 42 218 1.0 2.0 0.00 0.18 0.15 92 1019.7
20190217042400 42 219 2.0 3.0 0.00 0.18 0.15 92 1019.7
20190217041901 42 218 3.0 3.0 0.00 0.18 0.15 91 1019.7
20190217041401 42 219 0.0 2.0 0.00 0.18 0.15 90 1019.7
20190217040901 43 218 2.0 2.0 0.00 0.18 0.15 90 1019.7
20190217040343 43 221 1.0 2.0 0.00 0.18 0.15 89 1019.7
20190217035855 43 224 2.0 3.0 0.00 0.22 0.15 89 1019.8
20190217035355 43 224 1.0 3.0 0.00 0.22 0.15 89 1019.8
20190217034857 43 223 0.0 2.0 0.00 0.22 0.15 88 1019.8
20190217034401 44 223 1.0 4.0 0.00 0.22 0.15 87 1019.7
20190217033843 44 260 3.0 10.0 0.00 0.22 0.15 87 1019.7
20190217033344 44 201 3.0 8.0 0.00 0.22 0.15 88 1019.7
20190217032845 44 218 1.0 9.0 0.00 0.22 0.15 89 1019.7
20190217032345 45 327 2.0 11.0 0.00 0.22 0.15 88 1019.8
20190217031845 44 174 4.0 12.0 0.00 0.22 0.15 88 1019.9
20190217031347 44 90 4.0 13.0 0.00 0.22 0.15 91 1020.0
20190217030847 44 299 0.0 2.0 0.00 0.22 0.15 91 1020.0
20190217030349 44 299 2.0 2.0 0.00 0.22 0.15 90 1019.9
20190217025901 44 298 1.0 2.0 0.00 0.22 0.15 90 1019.7
20190217025400 45 298 2.0 2.0 0.00 0.22 0.15 89 1019.8
20190217024901 45 298 0.0 2.0 0.00 0.22 0.15 89 1019.8
20190217024345 45 298 1.0 2.0 0.00 0.22 0.15 88 1019.8
20190217023847 45 298 1.0 3.0 0.00 0.22 0.15 87 1019.7
20190217023347 46 298 1.0 4.0 0.00 0.22 0.15 86 1019.8
20190217022849 46 323 2.0 5.0 0.00 0.22 0.15 86 1019.7
20190217022349 46 352 2.0 5.0 0.00 0.22 0.15 85 1019.7
20190217021847 47 11 1.0 5.0 0.00 0.22 0.15 85 1019.8
20190217021347 47 6 2.0 3.0 0.00 0.22 0.15 84 1019.8
20190217020847 47 304 1.0 4.0 0.00 0.22 0.15 83 1019.7
20190217020346 47 319 2.0 4.0 0.00 0.22 0.15 82 1019.7
20190217015857 47 299 2.0 7.0 0.00 0.22 0.15 82 1019.7
20190217015357 48 353 2.0 7.0 0.00 0.22 0.15 81 1019.6
20190217014858 48 280 2.0 5.0 0.00 0.22 0.15 81 1019.6
20190217014358 48 288 1.0 5.0 0.00 0.22 0.15 80 1019.6
20190217013857 48 270 2.0 4.0 0.00 0.22 0.15 79 1019.6
20190217013343 49 143 2.0 7.0 0.00 0.22 0.15 78 1019.6
20190217012845 49 281 3.0 9.0 0.00 0.22 0.15 77 1019.5
20190217012345 50 264 3.0 10.0 0.00 0.22 0.15 78 1019.5
20190217011847 50 184 1.0 12.0 0.00 0.22 0.15 78 1019.4
20190217011347 50 255 4.0 13.0 0.00 0.22 0.15 77 1019.4
20190217010847 51 357 3.0 8.0 0.00 0.22 0.15 79 1019.4
20190217010347 51 263 4.0 9.0 0.00 0.22 0.15 80 1019.4
20190217005859 50 226 2.0 9.0 0.00 0.30 0.15 83 1019.4
20190217005359 50 232 3.0 9.0 0.00 0.30 0.15 83 1019.5
20190217004901 50 207 3.0 6.0 0.00 0.30 0.15 86 1019.5
20190217004342 49 262 2.0 6.0 0.00 0.30 0.15 92 1019.5
20190217003843 49 221 1.0 4.0 0.00 0.30 0.15 95 1019.5
20190217003347 48 230 2.0 4.0 0.00 0.30 0.15 96 1019.5
20190217002849 48 326 2.0 7.0 0.00 0.30 0.15 96 1019.6
20190217002351 47 308 2.0 12.0 0.00 0.30 0.15 95 1019.7
20190217001851 47 287 4.0 13.0 0.00 0.30 0.15 95 1019.7
20190217001351 48 293 5.0 13.0 0.01 0.30 0.15 95 1019.7
20190217000853 48 230 5.0 11.0 0.01 0.30 0.15 95 1019.8
20190217000353 48 203 5.0 11.0 0.01 0.30 0.15 95 1019.8
20190216235846 48 243 2.0 12.0 0.01 0.33 0.15 96 1019.8
20190216235347 48 303 3.0 12.0 0.01 0.33 0.15 96 1019.9
20190216234847 48 352 1.0 7.0 0.01 0.33 0.15 96 1019.9
20190216234349 47 291 3.0 8.0 0.01 0.33 0.15 96 1019.9
20190216233849 47 219 4.0 12.0 0.01 0.33 0.15 96 1019.9
20190216233351 47 273 6.0 12.0 0.01 0.33 0.15 96 1019.9
20190216232855 47 250 2.0 5.0 0.01 0.33 0.15 96 1020.0
20190216232355 47 286 2.0 7.0 0.01 0.33 0.15 95 1020.0
20190216231857 48 309 2.0 12.0 0.01 0.33 0.15 96 1020.1
20190216230847 48 269 5.0 9.0 0.00 0.32 0.14 95 1020.0
20190216230349 48 250 5.0 9.0 0.00 0.32 0.14 94 1020.1
20190216225843 48 243 3.0 6.0 0.00 0.32 0.14 96 1020.1
20190216225344 47 229 2.0 7.0 0.00 0.32 0.14 95 1020.0
20190216224844 47 312 5.0 8.0 0.00 0.32 0.14 95 1020.1
20190216224345 48 273 5.0 9.0 0.00 0.32 0.14 94 1020.2
20190216223849 48 330 5.0 9.0 0.00 0.32 0.14 93 1020.1
20190216223350 49 241 4.0 8.0 0.00 0.32 0.14 91 1020.1
20190216222855 51 248 3.0 8.0 0.00 0.32 0.14 88 1020.2
20190216222356 52 221 4.0 10.0 0.00 0.32 0.14 78 1020.2
20190216221858 53 245 4.0 9.0 0.00 0.32 0.14 75 1019.9
20190216221359 53 198 5.0 10.0 0.00 0.32 0.14 75 1019.8
20190216220901 53 237 5.0 11.0 0.00 0.32 0.14 73 1019.9
20190216220343 53 226 3.0 10.0 0.00 0.32 0.14 72 1019.9
20190216215856 53 260 5.0 10.0 0.00 0.41 0.14 72 1019.9
20190216215357 53 243 4.0 8.0 0.00 0.41 0.14 71 1020.1
20190216214857 53 226 4.0 9.0 0.00 0.41 0.14 72 1020.2
20190216214358 54 271 6.0 9.0 0.00 0.41 0.14 73 1020.2
20190216213901 54 247 4.0 10.0 0.00 0.41 0.14 75 1020.2
20190216213342 53 205 5.0 11.0 0.00 0.41 0.14 80 1020.4
20190216212848 53 207 6.0 8.0 0.00 0.41 0.14 82 1020.4
20190216212349 52 288 5.0 9.0 0.00 0.41 0.14 87 1020.5
20190216211849 51 323 3.0 11.0 0.01 0.41 0.14 95 1020.7
20190216211351 50 262 5.0 11.0 0.01 0.41 0.14 96 1020.7
20190216210853 50 205 3.0 6.0 0.01 0.41 0.14 97 1020.7
20190216210353 49 279 4.0 12.0 0.01 0.41 0.14 97 1021.0
20190216205847 48 258 5.0 12.0 0.01 0.41 0.14 96 1021.2
20190216205348 49 259 6.0 11.0 0.01 0.41 0.14 97 1021.3
20190216204850 49 355 1.0 6.0 0.01 0.41 0.14 97 1021.3
20190216204351 49 212 3.0 9.0 0.01 0.41 0.14 98 1021.3
20190216203853 49 217 3.0 9.0 0.01 0.41 0.14 98 1021.4
20190216203355 48 205 1.0 6.0 0.01 0.41 0.14 97 1021.4
20190216202856 48 272 1.0 5.0 0.01 0.41 0.14 98 1021.6
20190216202342 48 198 2.0 8.0 0.01 0.41 0.14 97 1021.8
20190216201843 47 214 2.0 8.0 0.00 0.40 0.13 97 1021.7
20190216201345 47 243 1.0 3.0 0.00 0.40 0.13 97 1021.8
20190216200847 48 262 1.0 5.0 0.00 0.40 0.13 97 1021.9
20190216200348 47 170 3.0 7.0 0.00 0.40 0.13 97 1021.8
20190216195842 48 146 2.0 7.0 0.00 0.40 0.13 97 1021.8
20190216195342 48 165 2.0 5.0 0.00 0.40 0.13 98 1021.9
20190216194845 47 214 3.0 6.0 0.00 0.40 0.13 98 1021.8
20190216194348 47 188 3.0 6.0 0.00 0.40 0.13 97 1021.9
20190216193849 47 214 3.0 6.0 0.00 0.40 0.13 97 1022.0
20190216193351 46 191 4.0 6.0 0.00 0.40 0.13 97 1022.1
20190216192854 46 188 2.0 5.0 0.00 0.40 0.13 97 1022.2
20190216192359 46 213 2.0 5.0 0.00 0.40 0.13 97 1022.3
20190216191841 46 198 4.0 5.0 0.00 0.40 0.13 97 1022.4
20190216191342 47 195 4.0 5.0 0.00 0.40 0.13 98 1022.4
20190216190844 47 206 2.0 4.0 0.00 0.40 0.13 98 1022.4
20190216190346 46 217 0.0 3.0 0.00 0.40 0.13 98 1022.6
20190216185858 46 195 1.0 6.0 0.00 0.40 0.13 98 1022.6
20190216185400 46 198 3.0 7.0 0.00 0.40 0.13 97 1022.6
20190216184859 46 221 6.0 7.0 0.00 0.40 0.13 97 1022.7